Regional Weather Roundup
Issued by NWS

Home | Current Version | Previous Version | Graphics & Text | Print | Product List | Glossary On
Versions: 1 2 3 4 5 6 7 8 9 10 11 12 13 14 15 16 17 18 19 20 21 22 23 24 25 26 27 28 29 30 31 32 33 34 35 36 37 38 39 40 41 42 43 44 45 46 47 48 49 50
000
ASUS44 KMEG 280510
RWRTN
TENNESSEE HOURLY STATE WEATHER ROUNDUP
NATIONAL WEATHER SERVICE MEMPHIS TN
1200 AM CDT SUN AUG 28 2016

TNZ002-004-019-021-049-052-054-088>092-280600-
WEST TENNESSEE

CITY           SKY/WX    TMP DP  RH WIND       PRES   REMARKS
MEMPHIS INTL   PTCLDY    82  72  71 E6        30.06S
NWS MEMPHIS      N/A     79 N/A N/A MISG        N/A
JACKSON        CLEAR     75  74  96 CALM      30.09S
DYERSBURG      CLEAR     79  73  83 MISG      30.08S
UNION CITY     CLEAR     79  73  83 SE3       30.08S
PARIS          CLEAR     70  70 100 CALM      30.11S
$$

TNZ008-025-027-028-033-062-065-066-280600-
NORTH MIDDLE TENNESSEE

CITY           SKY/WX    TMP DP  RH WIND       PRES   REMARKS
NASHVILLE      CLEAR     74  72  93 CALM      30.13S
CLARKSVILLE    CLOUDY    74  71  91 CALM      30.11S
COOKEVILLE     CLEAR     72  72 100 SW3       30.14S
CROSSVILLE     CLEAR     72  69  90 CALM      30.20F
$$

TNZ061-075-076-078-094-096-097-280600-
SOUTH MIDDLE TENNESSEE

CITY           SKY/WX    TMP DP  RH WIND       PRES   REMARKS
FAYETTEVILLE   CLOUDY    75  73  94 NE5       30.12S
TULLAHOMA      CLEAR     75  70  83 CALM      30.16S
WINCHESTER     CLEAR     73  70  88 CALM      30.14S
MCMINNVILLE    CLEAR     72  72 100 CALM      30.15S
COLUMBIA       CLEAR    N/A N/A N/A CALM      30.11S
SHELBYVILLE    CLEAR     73  73 100 CALM      30.14S
$$

TNZ017-018-042-046-047-280600-
NORTHEAST TENNESSEE

CITY           SKY/WX    TMP DP  RH WIND       PRES   REMARKS
TRI CITIES     CLOUDY    75  69  81 CALM      30.20F
ELIZABETHTON     N/A     73  72  94 CALM      30.21S
$$

TNZ012-013-036-069-073-074-280600-
CENTRAL EAST TENNESSEE

CITY           SKY/WX    TMP DP  RH WIND       PRES   REMARKS
KNOXVILLE      MOCLDY    73  69  87 SE5       30.14F
OAK RIDGE      PTCLDY    75  70  84 CALM      30.16F
GATLINBURG     CLEAR     70  70 100 CALM      30.16S
MORRISTOWN     PTCLDY    73  70  88 E3        30.17F
$$

TNZ083-085-099-280600-
SOUTHEAST TENNESSEE

CITY           SKY/WX    TMP DP  RH WIND       PRES   REMARKS
CHATTANOOGA    CLEAR     76  70  82 NW6       30.13S
$$

SKY/WX REPORTED AS FAIR MEANS FEW OR NO CLOUDS BELOW
12 THOUSAND FEET.





USA.gov is the U.S. government's official web portal to all federal, state and local government web resources and services.